Location: Kuffner-Sternwarte
(48.2130°N, 16.2960°E)
Time: 05:41:19
(UTC+02:00)

ACS3 Solar Sail - Pass Details

Date: 25 September 2024
Orbit: 963 x 1036 km, 97.4° (Epoch: 04 October)

Event Time Altitude Azimuth Distance (km) Brightness Sun altitude
Exits shadow 20:07:25 15° 133° (SE) 2,485 3.4 -14.3°
Maximum altitude 20:12:26 45° 67° (ENE) 1,383 2.3 -15.1°
Drops below altitude 10° 20:18:28 10° 358° (N) 2,833 4.5 -16.1°
Sets 20:21:04 0° 352° (N) 3,781 5.2 -16.5°
